When you browse on this site, cookies collect data to enhance your experience and personalize the content and advertising you see.
Visit our Privacy Policy to learn more. By continuing to use the site, you agree to this use of cookies and data.
  • En España
  • Lista de países
  • Para 7 días
  • Temperatura del agua
  • Mapa Satelital
  • El tiempo en el mapa
  • Informadores
  • user-avatar
    Iniciar sesión

    Tiempo cada hora Akra

    Hoy, 23 Enero, Miércoles

    Tiempo Temperatura Precipitaciones Viento Presión Humedad
    00:00 +30°C° 0 mm 4 mps 758 mmHg 81%
    01:00 +29°C° 0 mm 4 mps 757 mmHg 81%
    02:00 +29°C° 0 mm 4 mps 757 mmHg 82%
    03:00 +29°C° 0 mm 4 mps 757 mmHg 83%
    04:00 +29°C° 0 mm 4 mps 757 mmHg 84%
    05:00 +28°C° 0 mm 4 mps 757 mmHg 85%
    06:00 +28°C° 0 mm 3 mps 757 mmHg 86%
    07:00 +29°C° 0 mm 3 mps 758 mmHg 81%
    08:00 +30°C° 0 mm 3 mps 758 mmHg 75%
    09:00 +32°C° 0 mm 4 mps 758 mmHg 70%
    10:00 +34°C° 0 mm 4 mps 758 mmHg 61%
    11:00 +35°C° 0 mm 4 mps 758 mmHg 53%
    12:00 +37°C° 0 mm 4 mps 758 mmHg 44%
    13:00 +37°C° 0 mm 5 mps 757 mmHg 44%
    14:00 +38°C° 0 mm 6 mps 756 mmHg 45%
    15:00 +39°C° 0 mm 7 mps 755 mmHg 45%
    16:00 +36°C° 0 mm 7 mps 755 mmHg 55%
    17:00 +34°C° 0 mm 7 mps 755 mmHg 65%
    18:00 +32°C° 0 mm 8 mps 756 mmHg 74%
    19:00 +32°C° 0 mm 7 mps 756 mmHg 74%
    20:00 +32°C° 0 mm 7 mps 757 mmHg 74%
    21:00 +32°C° 0 mm 6 mps 757 mmHg 73%
    22:00 +30°C° 0 mm 6 mps 758 mmHg 74%
    23:00 +30°C° 0 mm 6 mps 758 mmHg 75%

    Mañana, 24 Enero, Jueves

    Tiempo Temperatura Precipitaciones Viento Presión Humedad
    00:00 +30°C° 0 mm 6 mps 758 mmHg 76%
    01:00 +30°C° 0 mm 5 mps 758 mmHg 77%
    02:00 +30°C° 0 mm 5 mps 757 mmHg 78%
    03:00 +29°C° 0 mm 4 mps 757 mmHg 79%
    04:00 +29°C° 0 mm 4 mps 757 mmHg 80%
    05:00 +29°C° 0 mm 4 mps 757 mmHg 81%
    06:00 +29°C° 0 mm 4 mps 757 mmHg 82%
    07:00 +30°C° 0 mm 4 mps 757 mmHg 77%
    08:00 +32°C° 0 mm 4 mps 758 mmHg 71%
    09:00 +33°C° 0 mm 4 mps 758 mmHg 66%
    10:00 +34°C° 0 mm 4 mps 758 mmHg 62%
    11:00 +34°C° 0 mm 4 mps 758 mmHg 59%
    12:00 +35°C° 0 mm 4 mps 757 mmHg 55%
    13:00 +36°C° 0 mm 5 mps 757 mmHg 54%
    14:00 +36°C° 0 mm 5 mps 756 mmHg 52%
    15:00 +36°C° 0 mm 6 mps 755 mmHg 51%
    16:00 +35°C° 0.1 mm 6 mps 756 mmHg 55%
    17:00 +34°C° 0.1 mm 6 mps 756 mmHg 60%
    18:00 +33°C° 0.1 mm 6 mps 756 mmHg 65%
    19:00 +33°C° 0 mm 6 mps 756 mmHg 68%
    20:00 +32°C° 0 mm 6 mps 757 mmHg 71%
    21:00 +32°C° 0 mm 6 mps 758 mmHg 74%
    22:00 +30°C° 0.1 mm 5 mps 758 mmHg 75%
    23:00 +30°C° 0.1 mm 5 mps 758 mmHg 76%

    Pasado mañana, 25 Enero, Viernes

    Tiempo Temperatura Precipitaciones Viento Presión Humedad
    00:00 +30°C° 0.1 mm 5 mps 758 mmHg 78%
    01:00 +29°C° 0.3 mm 5 mps 757 mmHg 79%
    02:00 +29°C° 0.3 mm 5 mps 757 mmHg 80%
    03:00 +29°C° 0.3 mm 4 mps 756 mmHg 81%
    04:00 +29°C° 0 mm 4 mps 756 mmHg 81%
    05:00 +28°C° 0 mm 4 mps 757 mmHg 82%
    06:00 +28°C° 0 mm 4 mps 757 mmHg 83%
    07:00 +29°C° 0 mm 4 mps 757 mmHg 77%
    08:00 +30°C° 0 mm 4 mps 758 mmHg 72%
    09:00 +33°C° 0 mm 4 mps 758 mmHg 66%
    10:00 +34°C° 0 mm 4 mps 758 mmHg 61%
    11:00 +35°C° 0 mm 4 mps 758 mmHg 56%
    12:00 +36°C° 0 mm 5 mps 757 mmHg 51%
    13:00 +36°C° 0.1 mm 5 mps 757 mmHg 52%
    14:00 +36°C° 0.1 mm 5 mps 756 mmHg 53%
    15:00 +36°C° 0.1 mm 6 mps 755 mmHg 53%
    16:00 +35°C° 0 mm 6 mps 755 mmHg 58%
    17:00 +34°C° 0 mm 6 mps 756 mmHg 62%
    18:00 +33°C° 0 mm 6 mps 756 mmHg 67%
    19:00 +33°C° 0 mm 6 mps 756 mmHg 70%
    20:00 +32°C° 0 mm 5 mps 757 mmHg 72%
    21:00 +30°C° 0 mm 5 mps 758 mmHg 75%
    22:00 +30°C° 0 mm 5 mps 758 mmHg 77%
    23:00 +30°C° 0 mm 5 mps 757 mmHg 78%

    26 Enero, Sábado

    Tiempo Temperatura Precipitaciones Viento Presión Humedad
    00:00 +30°C° 0 mm 5 mps 757 mmHg 80%
    01:00 +29°C° 0 mm 5 mps 757 mmHg 81%
    02:00 +29°C° 0 mm 4 mps 756 mmHg 82%
    03:00 +29°C° 0 mm 4 mps 756 mmHg 83%
    04:00 +29°C° 0 mm 4 mps 756 mmHg 84%
    05:00 +29°C° 0 mm 4 mps 757 mmHg 84%
    06:00 +29°C° 0 mm 4 mps 757 mmHg 85%
    07:00 +30°C° 0 mm 4 mps 758 mmHg 80%
    08:00 +32°C° 0 mm 4 mps 758 mmHg 74%
    09:00 +33°C° 0 mm 4 mps 759 mmHg 69%
    10:00 +33°C° 0 mm 4 mps 758 mmHg 66%
    11:00 +34°C° 0 mm 5 mps 758 mmHg 63%
    12:00 +35°C° 0 mm 5 mps 758 mmHg 60%
    13:00 +35°C° 0.1 mm 5 mps 757 mmHg 60%
    14:00 +35°C° 0.1 mm 6 mps 756 mmHg 60%
    15:00 +35°C° 0.1 mm 6 mps 755 mmHg 60%
    16:00 +34°C° 0 mm 6 mps 756 mmHg 63%
    17:00 +33°C° 0 mm 7 mps 756 mmHg 67%
    18:00 +33°C° 0 mm 7 mps 756 mmHg 71%
    19:00 +32°C° 0 mm 7 mps 757 mmHg 73%
    20:00 +32°C° 0 mm 6 mps 757 mmHg 75%
    21:00 +30°C° 0 mm 6 mps 758 mmHg 78%
    22:00 +30°C° 0 mm 6 mps 758 mmHg 79%
    23:00 +30°C° 0 mm 5 mps 758 mmHg 81%

    27 Enero, Domingo

    Tiempo Temperatura Precipitaciones Viento Presión Humedad
    00:00 +29°C° 0 mm 5 mps 758 mmHg 82%
    01:00 +29°C° 0 mm 5 mps 757 mmHg 82%
    02:00 +29°C° 0 mm 5 mps 757 mmHg 82%
    03:00 +29°C° 0 mm 4 mps 756 mmHg 82%
    04:00 +29°C° 0 mm 4 mps 757 mmHg 82%
    05:00 +29°C° 0 mm 4 mps 757 mmHg 83%
    06:00 +29°C° 0 mm 4 mps 757 mmHg 83%
    07:00 +30°C° 0 mm 4 mps 758 mmHg 78%
    08:00 +32°C° 0 mm 4 mps 758 mmHg 73%
    09:00 +33°C° 0 mm 4 mps 759 mmHg 67%
    10:00 +34°C° 0 mm 4 mps 759 mmHg 64%
    11:00 +34°C° 0 mm 4 mps 758 mmHg 61%
    12:00 +35°C° 0 mm 4 mps 758 mmHg 57%
    13:00 +36°C° 0.1 mm 5 mps 757 mmHg 55%
    14:00 +36°C° 0.1 mm 5 mps 756 mmHg 53%
    15:00 +37°C° 0.1 mm 5 mps 755 mmHg 50%
    16:00 +36°C° 0.1 mm 6 mps 755 mmHg 56%
    17:00 +34°C° 0.1 mm 7 mps 756 mmHg 63%
    18:00 +33°C° 0.1 mm 7 mps 756 mmHg 69%
    19:00 +32°C° 0 mm 7 mps 757 mmHg 71%
    20:00 +32°C° 0 mm 7 mps 757 mmHg 73%
    21:00 +30°C° 0 mm 7 mps 758 mmHg 76%
    22:00 +30°C° 0 mm 6 mps 758 mmHg 77%
    23:00 +30°C° 0 mm 6 mps 757 mmHg 78%

    28 Enero, Lunes

    Tiempo Temperatura Precipitaciones Viento Presión Humedad
    00:00 +30°C° 0 mm 6 mps 757 mmHg 79%
    01:00 +29°C° 0 mm 6 mps 757 mmHg 80%
    02:00 +29°C° 0 mm 5 mps 757 mmHg 81%
    03:00 +29°C° 0 mm 5 mps 756 mmHg 82%
    04:00 +29°C° 0 mm 5 mps 756 mmHg 82%
    05:00 +29°C° 0 mm 5 mps 757 mmHg 82%
    06:00 +29°C° 0 mm 5 mps 757 mmHg 83%
    07:00 +30°C° 0.1 mm 5 mps 757 mmHg 78%
    08:00 +32°C° 0.1 mm 5 mps 758 mmHg 72%
    09:00 +33°C° 0.1 mm 5 mps 758 mmHg 67%
    10:00 +34°C° 0.2 mm 5 mps 758 mmHg 63%
    11:00 +35°C° 0.2 mm 5 mps 757 mmHg 59%
    12:00 +35°C° 0.2 mm 5 mps 757 mmHg 55%
    13:00 +36°C° 0.1 mm 5 mps 756 mmHg 55%
    14:00 +36°C° 0.1 mm 5 mps 756 mmHg 54%
    15:00 +36°C° 0.1 mm 5 mps 755 mmHg 54%
    16:00 +35°C° 0.2 mm 6 mps 755 mmHg 59%
    17:00 +34°C° 0.2 mm 6 mps 756 mmHg 64%
    18:00 +32°C° 0.2 mm 6 mps 756 mmHg 70%
    19:00 +32°C° 0.1 mm 6 mps 756 mmHg 72%
    20:00 +32°C° 0.1 mm 6 mps 757 mmHg 75%
    21:00 +30°C° 0.1 mm 6 mps 758 mmHg 77%
    22:00 +30°C° 0.2 mm 6 mps 757 mmHg 78%
    23:00 +30°C° 0.2 mm 5 mps 757 mmHg 79%
    Mostrar más